Time,TemperatureF,DewpointF,PressureIn,WindDirection,WindDirectionDegrees,WindSpeedMPH,WindSpeedGustMPH,Humidity,HourlyPrecipIn,Conditions,Clouds,dailyrainin,SoftwareType,DateUTC
2013-01-19 00:03:00,38.0,27.0,30.12,South,180,15.0,35.0,64,0.00,,,0.00,,2013-01-19 05:03:00,
2013-01-19 00:12:00,38.0,27.0,30.12,South,180,15.0,35.0,64,0.00,,,0.00,,2013-01-19 05:12:00,
2013-01-19 00:23:00,38.0,27.0,30.13,South,187,17.0,29.0,64,0.00,,,0.00,,2013-01-19 05:23:00,
2013-01-19 00:33:00,38.0,27.0,30.13,SSE,152,17.0,26.0,64,0.00,,,0.00,,2013-01-19 05:33:00,
2013-01-19 00:43:00,38.0,27.0,30.13,SSE,152,17.0,26.0,64,0.00,,,0.00,,2013-01-19 05:43:00,
2013-01-19 00:53:00,38.0,27.0,30.13,South,173,16.0,28.0,65,0.00,,,0.00,,2013-01-19 05:53:00,
2013-01-19 01:03:00,38.0,27.0,30.13,South,184,19.0,25.0,64,0.00,,,0.00,,2013-01-19 06:03:00,
2013-01-19 01:12:00,38.0,27.0,30.13,South,184,19.0,25.0,64,0.00,,,0.00,,2013-01-19 06:12:00,
2013-01-19 01:22:00,38.0,27.0,30.12,South,186,17.0,25.0,64,0.00,,,0.00,,2013-01-19 06:22:00,
2013-01-19 01:33:00,38.0,27.0,30.12,South,186,17.0,25.0,64,0.00,,,0.00,,2013-01-19 06:33:00,
2013-01-19 01:43:00,38.0,27.0,30.12,South,186,17.0,25.0,64,0.00,,,0.00,,2013-01-19 06:43:00,
2013-01-19 01:53:00,39.0,28.0,30.12,South,179,18.0,29.0,64,0.00,,,0.00,,2013-01-19 06:53:00,
2013-01-19 02:02:00,39.0,27.0,30.12,South,186,16.0,32.0,63,0.00,,,0.00,,2013-01-19 07:02:00,
2013-01-19 02:12:00,39.0,27.0,30.12,South,186,16.0,32.0,63,0.00,,,0.00,,2013-01-19 07:12:00,
2013-01-19 02:22:00,39.0,28.0,30.13,South,173,15.0,27.0,64,0.00,,,0.00,,2013-01-19 07:22:00,
2013-01-19 02:33:00,39.0,28.0,30.13,South,171,16.0,23.0,64,0.00,,,0.00,,2013-01-19 07:33:00,
2013-01-19 02:43:00,39.0,28.0,30.13,South,171,16.0,23.0,64,0.00,,,0.00,,2013-01-19 07:43:00,
2013-01-19 02:53:00,39.0,28.0,30.12,SE,145,16.0,28.0,64,0.00,,,0.00,,2013-01-19 07:53:00,
2013-01-19 03:02:00,39.0,28.0,30.12,SE,145,16.0,28.0,64,0.00,,,0.00,,2013-01-19 08:02:00,
2013-01-19 03:12:00,39.0,28.0,30.12,SE,145,16.0,28.0,64,0.00,,,0.00,,2013-01-19 08:12:00,
2013-01-19 03:22:00,39.0,28.0,30.13,SSW,213,15.0,23.0,64,0.00,,,0.00,,2013-01-19 08:22:00,
2013-01-19 03:32:00,39.0,27.0,30.12,South,175,16.0,25.0,63,0.00,,,0.00,,2013-01-19 08:32:00,
2013-01-19 03:43:00,39.0,27.0,30.12,South,175,16.0,25.0,63,0.00,,,0.00,,2013-01-19 08:43:00,
2013-01-19 03:52:00,39.0,27.0,30.11,South,183,16.0,26.0,62,0.00,,,0.00,,2013-01-19 08:52:00,
2013-01-19 04:02:00,40.0,28.0,30.11,SSW,198,15.0,27.0,61,0.00,,,0.00,,2013-01-19 09:02:00,
2013-01-19 04:12:00,40.0,28.0,30.11,SSW,198,15.0,27.0,61,0.00,,,0.00,,2013-01-19 09:12:00,
2013-01-19 04:23:00,40.0,28.0,30.11,SSE,168,19.0,31.0,61,0.00,,,0.00,,2013-01-19 09:23:00,
2013-01-19 04:33:00,39.0,27.0,30.10,South,187,20.0,30.0,61,0.00,,,0.00,,2013-01-19 09:33:00,
2013-01-19 04:42:00,39.0,27.0,30.10,South,187,20.0,30.0,61,0.00,,,0.00,,2013-01-19 09:42:00,
2013-01-19 04:53:00,39.0,27.0,30.10,South,187,20.0,30.0,61,0.00,,,0.00,,2013-01-19 09:53:00,
2013-01-19 05:02:00,39.0,27.0,30.10,South,187,20.0,30.0,61,0.00,,,0.00,,2013-01-19 10:02:00,
2013-01-19 05:12:00,39.0,27.0,30.10,South,187,20.0,30.0,61,0.00,,,0.00,,2013-01-19 10:12:00,
2013-01-19 05:23:00,39.0,27.0,30.09,SSE,155,20.0,29.0,62,0.00,,,0.00,,2013-01-19 10:23:00,
2013-01-19 05:33:00,39.0,27.0,30.09,SSE,167,16.0,26.0,62,0.00,,,0.00,,2013-01-19 10:33:00,
2013-01-19 05:43:00,39.0,27.0,30.09,SSE,167,16.0,26.0,62,0.00,,,0.00,,2013-01-19 10:43:00,
2013-01-19 05:53:00,39.0,27.0,30.09,South,183,16.0,27.0,62,0.00,,,0.00,,2013-01-19 10:53:00,
2013-01-19 06:03:00,39.0,27.0,30.09,South,178,17.0,28.0,62,0.00,,,0.00,,2013-01-19 11:03:00,
2013-01-19 06:12:00,39.0,27.0,30.09,South,178,17.0,28.0,62,0.00,,,0.00,,2013-01-19 11:12:00,
2013-01-19 07:48:00,39.0,27.0,30.10,SSW,202,12.0,27.0,63,0.00,,,0.00,,2013-01-19 12:48:00,
2013-01-19 08:03:00,38.0,27.0,30.10,South,182,12.0,20.0,64,0.00,,,0.00,,2013-01-19 13:03:00,
2013-01-19 08:13:00,38.0,27.0,30.10,South,182,12.0,20.0,64,0.00,,,0.00,,2013-01-19 13:13:00,
2013-01-19 08:22:00,38.0,27.0,30.10,South,180,13.0,23.0,65,0.00,,,0.00,,2013-01-19 13:22:00,
2013-01-19 08:34:00,38.0,27.0,30.09,SSE,168,13.0,20.0,65,0.00,,,0.00,,2013-01-19 13:34:00,
2013-01-19 08:43:00,38.0,27.0,30.09,SSE,168,13.0,20.0,65,0.00,,,0.00,,2013-01-19 13:43:00,
2013-01-19 08:53:00,38.0,27.0,30.10,South,171,15.0,22.0,65,0.00,,,0.00,,2013-01-19 13:53:00,
2013-01-19 09:03:00,39.0,28.0,30.10,South,178,13.0,22.0,64,0.00,,,0.00,,2013-01-19 14:03:00,
2013-01-19 09:12:00,39.0,28.0,30.10,South,178,13.0,22.0,64,0.00,,,0.00,,2013-01-19 14:12:00,
2013-01-19 09:23:00,40.0,29.0,30.10,South,188,13.0,26.0,64,0.00,,,0.00,,2013-01-19 14:23:00,
2013-01-19 09:34:00,40.0,28.0,30.10,South,169,13.0,26.0,63,0.00,,,0.00,,2013-01-19 14:34:00,
2013-01-19 09:43:00,40.0,28.0,30.10,South,169,13.0,26.0,63,0.00,,,0.00,,2013-01-19 14:43:00,
2013-01-19 09:53:00,41.0,29.0,30.09,South,175,15.0,23.0,61,0.00,,,0.00,,2013-01-19 14:53:00,
2013-01-19 10:03:00,42.0,30.0,30.09,SSE,156,12.0,24.0,61,0.00,,,0.00,,2013-01-19 15:03:00,
2013-01-19 10:13:00,42.0,30.0,30.09,SSE,156,12.0,24.0,61,0.00,,,0.00,,2013-01-19 15:13:00,
2013-01-19 10:23:00,42.0,29.0,30.09,SSE,161,15.0,27.0,60,0.00,,,0.00,,2013-01-19 15:23:00,
2013-01-19 10:33:00,43.0,30.0,30.09,SSE,149,14.0,22.0,60,0.00,,,0.00,,2013-01-19 15:33:00,
2013-01-19 10:43:00,43.0,30.0,30.09,SSE,149,14.0,22.0,60,0.00,,,0.00,,2013-01-19 15:43:00,
2013-01-19 10:53:00,43.0,30.0,30.09,South,181,18.0,26.0,60,0.00,,,0.00,,2013-01-19 15:53:00,
2013-01-19 11:03:00,44.0,31.0,30.09,South,175,13.0,24.0,60,0.00,,,0.00,,2013-01-19 16:03:00,
2013-01-19 11:13:00,44.0,31.0,30.09,South,175,13.0,24.0,60,0.00,,,0.00,,2013-01-19 16:13:00,
2013-01-19 11:23:00,44.0,31.0,30.08,SSW,200,13.0,26.0,59,0.00,,,0.00,,2013-01-19 16:23:00,
2013-01-19 11:33:00,44.0,31.0,30.08,SSW,200,13.0,26.0,59,0.00,,,0.00,,2013-01-19 16:33:00,
2013-01-19 11:43:00,44.0,31.0,30.08,SSW,200,13.0,26.0,59,0.00,,,0.00,,2013-01-19 16:43:00,
2013-01-19 11:53:00,46.0,32.0,30.06,South,178,14.0,21.0,58,0.00,,,0.00,,2013-01-19 16:53:00,
2013-01-19 12:03:00,46.0,32.0,30.05,South,172,13.0,26.0,58,0.00,,,0.00,,2013-01-19 17:03:00,
2013-01-19 12:29:00,47.0,33.0,30.03,South,188,19.0,29.0,57,0.00,,,0.00,,2013-01-19 17:29:00,
2013-01-19 12:35:00,47.0,33.0,30.03,South,183,20.0,28.0,57,0.00,,,0.00,,2013-01-19 17:35:00,
2013-01-19 12:48:00,47.0,33.0,30.03,South,183,20.0,28.0,57,0.00,,,0.00,,2013-01-19 17:48:00,
2013-01-19 12:55:00,48.0,34.0,30.01,SSE,163,19.0,28.0,57,0.00,,,0.00,,2013-01-19 17:55:00,
2013-01-19 13:12:00,48.0,34.0,30.01,South,187,19.0,32.0,57,0.00,,,0.00,,2013-01-19 18:12:00,
2013-01-19 13:28:00,48.0,34.0,29.99,South,189,21.0,31.0,57,0.00,,,0.00,,2013-01-19 18:28:00,
2013-01-19 13:35:00,48.0,33.0,29.98,South,176,24.0,32.0,56,0.00,,,0.00,,2013-01-19 18:35:00,
2013-01-19 13:45:00,48.0,33.0,29.98,South,176,24.0,32.0,56,0.00,,,0.00,,2013-01-19 18:45:00,
2013-01-19 14:02:00,48.0,34.0,29.97,South,185,19.0,30.0,58,0.00,,,0.00,,2013-01-19 19:02:00,
2013-01-19 14:09:00,49.0,34.0,29.96,SSE,166,20.0,29.0,57,0.00,,,0.00,,2013-01-19 19:09:00,
2013-01-19 14:20:00,49.0,34.0,29.96,SSE,166,20.0,29.0,57,0.00,,,0.00,,2013-01-19 19:20:00,
2013-01-19 14:30:00,49.0,34.0,29.96,SSE,166,20.0,29.0,57,0.00,,,0.00,,2013-01-19 19:30:00,
2013-01-19 14:40:00,50.0,35.0,29.95,South,187,17.0,24.0,56,0.00,,,0.00,,2013-01-19 19:40:00,
2013-01-19 14:47:00,50.0,35.0,29.95,South,187,17.0,24.0,56,0.00,,,0.00,,2013-01-19 19:47:00,
2013-01-19 15:19:00,50.0,35.0,29.93,SSE,165,18.0,35.0,57,0.00,,,0.00,,2013-01-19 20:19:00,
2013-01-19 15:25:00,50.0,35.0,29.92,SSE,157,18.0,27.0,56,0.00,,,0.00,,2013-01-19 20:25:00,
2013-01-19 15:34:00,50.0,35.0,29.91,South,186,16.0,28.0,56,0.00,,,0.00,,2013-01-19 20:34:00,
2013-01-19 15:38:00,50.0,35.0,29.91,South,170,21.0,30.0,56,0.00,,,0.00,,2013-01-19 20:38:00,
2013-01-19 15:48:00,50.0,35.0,29.91,South,170,21.0,30.0,56,0.00,,,0.00,,2013-01-19 20:48:00,
2013-01-19 15:59:00,50.0,35.0,29.91,South,186,16.0,28.0,56,0.00,,,0.00,,2013-01-19 20:59:00,
2013-01-19 16:07:00,50.0,35.0,29.91,South,186,16.0,28.0,56,0.00,,,0.00,,2013-01-19 21:07:00,
2013-01-19 16:14:00,50.0,35.0,29.91,South,186,16.0,28.0,56,0.00,,,0.00,,2013-01-19 21:14:00,
2013-01-19 16:27:00,50.0,35.0,29.91,South,186,16.0,28.0,56,0.00,,,0.00,,2013-01-19 21:27:00,
2013-01-19 16:54:00,50.0,35.0,29.88,South,180,12.0,25.0,57,0.00,,,0.00,,2013-01-19 21:54:00,
2013-01-19 17:02:00,50.0,35.0,29.90,South,184,0.0,22.0,57,0.00,,,0.00,,2013-01-19 22:02:00,
2013-01-19 17:16:00,50.0,35.0,29.90,South,184,0.0,22.0,57,0.00,,,0.00,,2013-01-19 22:16:00,
2013-01-19 17:27:00,50.0,35.0,29.88,South,180,12.0,25.0,57,0.00,,,0.00,,2013-01-19 22:27:00,
2013-01-19 17:35:00,50.0,35.0,29.88,South,180,12.0,25.0,57,0.00,,,0.00,,2013-01-19 22:35:00,
2013-01-19 17:48:00,50.0,35.0,29.88,South,180,12.0,25.0,57,0.00,,,0.00,,2013-01-19 22:48:00,
2013-01-19 18:14:00,48.0,35.0,29.89,South,172,12.0,19.0,61,0.00,,,0.00,,2013-01-19 23:14:00,
2013-01-19 18:28:00,48.0,36.0,29.88,South,169,14.0,27.0,62,0.00,,,0.00,,2013-01-19 23:28:00,
2013-01-19 18:35:00,48.0,36.0,29.88,South,169,14.0,27.0,62,0.00,,,0.00,,2013-01-19 23:35:00,
2013-01-19 18:46:00,48.0,36.0,29.88,South,169,14.0,27.0,62,0.00,,,0.00,,2013-01-19 23:46:00,
2013-01-19 19:08:00,48.0,35.0,29.89,South,175,16.0,21.0,61,0.00,,,0.00,,2013-01-20 00:08:00,
2013-01-19 19:17:00,48.0,35.0,29.87,South,187,14.0,27.0,61,0.00,,,0.00,,2013-01-20 00:17:00,
2013-01-19 19:25:00,48.0,36.0,29.87,South,179,12.0,21.0,62,0.00,,,0.00,,2013-01-20 00:25:00,
2013-01-19 19:36:00,47.0,35.0,29.87,South,169,11.0,18.0,63,0.00,,,0.00,,2013-01-20 00:36:00,
2013-01-19 19:46:00,47.0,35.0,29.87,South,169,11.0,18.0,63,0.00,,,0.00,,2013-01-20 00:46:00,
2013-01-19 20:04:00,47.0,35.0,29.87,South,176,14.0,21.0,63,0.00,,,0.00,,2013-01-20 01:04:00,
2013-01-19 20:20:00,47.0,35.0,29.87,South,176,14.0,21.0,63,0.00,,,0.00,,2013-01-20 01:20:00,
2013-01-19 20:27:00,46.0,35.0,29.87,South,178,14.0,21.0,64,0.00,,,0.00,,2013-01-20 01:27:00,
2013-01-19 20:39:00,46.0,35.0,29.87,South,172,11.0,17.0,65,0.00,,,0.00,,2013-01-20 01:39:00,
2013-01-19 20:51:00,46.0,35.0,29.87,South,172,11.0,17.0,65,0.00,,,0.00,,2013-01-20 01:51:00,
2013-01-19 21:04:00,45.0,34.0,29.86,South,173,13.0,22.0,66,0.00,,,0.00,,2013-01-20 02:04:00,
2013-01-19 21:15:00,45.0,34.0,29.86,South,173,13.0,22.0,66,0.00,,,0.00,,2013-01-20 02:15:00,
2013-01-19 21:27:00,45.0,35.0,29.85,South,182,12.0,22.0,67,0.00,,,0.00,,2013-01-20 02:27:00,
2013-01-19 21:36:00,45.0,35.0,29.85,South,182,13.0,25.0,68,0.00,,,0.00,,2013-01-20 02:36:00,
2013-01-19 21:45:00,45.0,35.0,29.85,South,182,13.0,25.0,68,0.00,,,0.00,,2013-01-20 02:45:00,
2013-01-19 21:59:00,45.0,35.0,29.85,South,182,13.0,25.0,68,0.00,,,0.00,,2013-01-20 02:59:00,
2013-01-19 22:39:00,45.0,36.0,29.84,South,182,14.0,26.0,70,0.00,,,0.00,,2013-01-20 03:39:00,
2013-01-19 23:05:00,45.0,37.0,29.84,South,171,12.0,28.0,72,0.00,,,0.00,,2013-01-20 04:05:00,
2013-01-19 23:15:00,45.0,37.0,29.84,South,171,12.0,28.0,72,0.00,,,0.00,,2013-01-20 04:15:00,
2013-01-19 23:28:00,45.0,37.0,29.84,SSW,211,15.0,27.0,73,0.00,,,0.00,,2013-01-20 04:28:00,
2013-01-19 23:37:00,45.0,37.0,29.84,SSW,211,15.0,27.0,73,0.00,,,0.00,,2013-01-20 04:37:00,
2013-01-19 23:44:00,45.0,37.0,29.84,SSW,211,15.0,27.0,73,0.00,,,0.00,,2013-01-20 04:44:00,
2013-01-19 23:58:00,45.0,37.0,29.83,South,178,14.0,28.0,74,0.00,,,0.00,,2013-01-20 04:58:00,